Location: Plainartige
(45.6866°N, 1.7993°E)
Time: 13:14:48
(UTC+00:00)

Gurwin Techsat 1B - Pass Details

Date: 06 July 2022
Orbit: 812 x 813 km, 98.8° (Epoch: 13 August)

Event Time Altitude Azimuth Distance (km) Brightness Sun altitude
Rises 01:45:25 0° 22° (NNE) 3,346 13.6 -17.4°
Reaches altitude 10° 01:47:59 10° 32° (NNE) 2,409 12.4 -17.2°
Maximum altitude 01:52:48 34° 96° (E) 1,321 9.9 -16.8°
Enters shadow 01:57:12 12° 159° (SSE) 2,264 10.6 -16.4°
